Meteo pe oră la Dabrowka

Astăzi, 11 Aprilie, Duminică

Timp Temperatura Precipitaţii Vânt Presiune Umiditate
00:00 +5°C° 0.1 mm 2 m/s 752 mmHg 93%
01:00 +5°C° 0 mm 2 m/s 752 mmHg 95%
02:00 +5°C° 0 mm 2 m/s 752 mmHg 95%
03:00 +5°C° 0 mm 2 m/s 752 mmHg 96%
04:00 +6°C° 0 mm 2 m/s 752 mmHg 96%
05:00 +6°C° 0 mm 2 m/s 753 mmHg 94%
06:00 +7°C° 0 mm 2 m/s 753 mmHg 92%
07:00 +8°C° 0 mm 2 m/s 753 mmHg 90%
08:00 +10°C° 0 mm 3 m/s 753 mmHg 82%
09:00 +12°C° 0 mm 3 m/s 752 mmHg 75%
10:00 +14°C° 0 mm 4 m/s 752 mmHg 67%
11:00 +15°C° 0 mm 5 m/s 752 mmHg 60%
12:00 +16°C° 0 mm 6 m/s 752 mmHg 53%
13:00 +19°C° 0 mm 6 m/s 751 mmHg 47%
14:00 +17°C° 0 mm 6 m/s 751 mmHg 49%
15:00 +17°C° 0 mm 6 m/s 751 mmHg 50%
16:00 +17°C° 0 mm 6 m/s 751 mmHg 52%
17:00 +16°C° 0 mm 6 m/s 751 mmHg 55%
18:00 +14°C° 0 mm 5 m/s 751 mmHg 59%
19:00 +13°C° 0 mm 5 m/s 751 mmHg 62%
20:00 +13°C° 0 mm 5 m/s 751 mmHg 62%
21:00 +13°C° 0 mm 5 m/s 752 mmHg 63%
22:00 +12°C° 0 mm 5 m/s 752 mmHg 63%
23:00 +12°C° 0 mm 5 m/s 752 mmHg 65%

Mâine, 12 Aprilie, Luni

Timp Temperatura Precipitaţii Vânt Presiune Umiditate
00:00 +10°C° 0 mm 5 m/s 752 mmHg 68%
01:00 +10°C° 0 mm 5 m/s 752 mmHg 70%
02:00 +10°C° 0 mm 5 m/s 752 mmHg 71%
03:00 +9°C° 0 mm 5 m/s 752 mmHg 72%
04:00 +9°C° 0 mm 5 m/s 751 mmHg 73%
05:00 +9°C° 0 mm 5 m/s 752 mmHg 73%
06:00 +9°C° 0 mm 5 m/s 752 mmHg 73%
07:00 +9°C° 0 mm 5 m/s 752 mmHg 73%
08:00 +9°C° 0 mm 5 m/s 752 mmHg 73%
09:00 +10°C° 0 mm 4 m/s 752 mmHg 73%
10:00 +10°C° 0 mm 4 m/s 752 mmHg 73%
11:00 +11°C° 0 mm 4 m/s 752 mmHg 72%
12:00 +12°C° 0 mm 4 m/s 752 mmHg 71%
13:00 +12°C° 0 mm 4 m/s 751 mmHg 70%
14:00 +12°C° 0.1 mm 3 m/s 751 mmHg 75%
15:00 +11°C° 0.1 mm 3 m/s 751 mmHg 77%
16:00 +11°C° 0.1 mm 3 m/s 751 mmHg 80%
17:00 +9°C° 0.7 mm 3 m/s 752 mmHg 84%
18:00 +6°C° 0.7 mm 4 m/s 752 mmHg 89%
19:00 +3°C° 0.7 mm 5 m/s 752 mmHg 94%
20:00 +2°C° 0.4 mm 5 m/s 753 mmHg 94%
21:00 +2°C° 0.4 mm 5 m/s 753 mmHg 94%
22:00 +1°C° 0.4 mm 5 m/s 754 mmHg 94%
23:00 +1°C° 0.1 mm 5 m/s 754 mmHg 93%

Poimâine, 13 Aprilie, Marţi

Timp Temperatura Precipitaţii Vânt Presiune Umiditate
00:00 +1°C° 0.1 mm 5 m/s 754 mmHg 92%
01:00 +1°C° 0.1 mm 5 m/s 755 mmHg 91%
02:00 +1°C° 0 mm 4 m/s 755 mmHg 90%
03:00 +1°C° 0 mm 4 m/s 755 mmHg 89%
04:00 +2°C° 0 mm 3 m/s 755 mmHg 88%
05:00 +1°C° 0 mm 4 m/s 756 mmHg 86%
06:00 +3°C° 0 mm 4 m/s 756 mmHg 84%
07:00 +3°C° 0 mm 4 m/s 756 mmHg 82%
08:00 +4°C° 0 mm 4 m/s 756 mmHg 73%
09:00 +5°C° 0 mm 4 m/s 756 mmHg 64%
10:00 +6°C° 0 mm 4 m/s 757 mmHg 55%
11:00 +7°C° 0 mm 4 m/s 757 mmHg 52%
12:00 +7°C° 0 mm 4 m/s 757 mmHg 49%
13:00 +8°C° 0 mm 4 m/s 757 mmHg 45%
14:00 +7°C° 0 mm 4 m/s 756 mmHg 46%
15:00 +7°C° 0 mm 4 m/s 756 mmHg 47%
16:00 +7°C° 0 mm 5 m/s 756 mmHg 48%
17:00 +6°C° 0 mm 4 m/s 756 mmHg 52%
18:00 +5°C° 0 mm 4 m/s 756 mmHg 55%
19:00 +4°C° 0 mm 4 m/s 757 mmHg 59%
20:00 +3°C° 0 mm 4 m/s 757 mmHg 61%
21:00 +3°C° 0 mm 4 m/s 757 mmHg 64%
22:00 +1°C° 0 mm 4 m/s 756 mmHg 66%
23:00 +2°C° 0 mm 3 m/s 756 mmHg 71%

14 Aprilie, Miercuri

Timp Temperatura Precipitaţii Vânt Presiune Umiditate
00:00 +2°C° 0 mm 3 m/s 756 mmHg 75%
01:00 +1°C° 0 mm 3 m/s 756 mmHg 80%
02:00 +1°C° 0 mm 3 m/s 756 mmHg 82%
03:00 +1°C° 0 mm 3 m/s 756 mmHg 84%
04:00 +1°C° 0 mm 3 m/s 755 mmHg 87%
05:00 +1°C° 0 mm 4 m/s 755 mmHg 83%
06:00 +1°C° 0 mm 4 m/s 755 mmHg 80%
07:00 +1°C° 0 mm 4 m/s 755 mmHg 76%
08:00 +2°C° 0 mm 5 m/s 755 mmHg 70%
09:00 +3°C° 0 mm 5 m/s 755 mmHg 63%
10:00 +5°C° 0 mm 5 m/s 755 mmHg 56%
11:00 +5°C° 0 mm 6 m/s 755 mmHg 54%
12:00 +5°C° 0 mm 6 m/s 754 mmHg 53%
13:00 +7°C° 0 mm 6 m/s 754 mmHg 51%
14:00 +7°C° 0 mm 6 m/s 754 mmHg 53%
15:00 +7°C° 0 mm 6 m/s 754 mmHg 56%
16:00 +7°C° 0 mm 6 m/s 754 mmHg 58%
17:00 +5°C° 0 mm 6 m/s 754 mmHg 60%
18:00 +4°C° 0 mm 6 m/s 754 mmHg 62%
19:00 +3°C° 0 mm 6 m/s 754 mmHg 64%
20:00 +2°C° 0.1 mm 6 m/s 754 mmHg 71%
21:00 +2°C° 0.1 mm 6 m/s 754 mmHg 78%
22:00 +1°C° 0.1 mm 6 m/s 754 mmHg 85%
23:00 +1°C° 0.3 mm 6 m/s 754 mmHg 88%

15 Aprilie, Joi

Timp Temperatura Precipitaţii Vânt Presiune Umiditate
00:00 -1°C° 0.3 mm 6 m/s 754 mmHg 92%
01:00 -1°C° 0.3 mm 6 m/s 753 mmHg 95%
02:00 -1°C° 0.3 mm 6 m/s 753 mmHg 96%
03:00 -1°C° 0.3 mm 6 m/s 753 mmHg 96%
04:00 -1°C° 0.3 mm 6 m/s 753 mmHg 96%
05:00 -1°C° 0.1 mm 6 m/s 754 mmHg 96%
06:00 -1°C° 0.1 mm 6 m/s 754 mmHg 96%
07:00 -1°C° 0.1 mm 6 m/s 754 mmHg 96%
08:00 0°C° 0.1 mm 5 m/s 754 mmHg 95%
09:00 0°C° 0.1 mm 5 m/s 755 mmHg 95%
10:00 0°C° 0.1 mm 5 m/s 755 mmHg 95%
11:00 +1°C° 0.1 mm 5 m/s 755 mmHg 91%
12:00 +1°C° 0.1 mm 5 m/s 755 mmHg 88%
13:00 +2°C° 0.1 mm 5 m/s 755 mmHg 85%
14:00 +2°C° 0 mm 5 m/s 755 mmHg 82%
15:00 +4°C° 0 mm 4 m/s 755 mmHg 80%
16:00 +5°C° 0 mm 4 m/s 755 mmHg 77%
17:00 +4°C° 0 mm 4 m/s 755 mmHg 79%
18:00 +4°C° 0 mm 3 m/s 755 mmHg 80%
19:00 +3°C° 0 mm 3 m/s 755 mmHg 82%
20:00 +3°C° 0 mm 3 m/s 755 mmHg 84%
21:00 +3°C° 0 mm 4 m/s 756 mmHg 85%
22:00 +1°C° 0 mm 4 m/s 756 mmHg 87%
23:00 +1°C° 0 mm 4 m/s 756 mmHg 89%

16 Aprilie, Vineri

Timp Temperatura Precipitaţii Vânt Presiune Umiditate
00:00 +1°C° 0 mm 5 m/s 755 mmHg 92%
01:00 +1°C° 0 mm 5 m/s 755 mmHg 94%
02:00 +1°C° 0 mm 5 m/s 755 mmHg 93%
03:00 +1°C° 0 mm 5 m/s 755 mmHg 92%
04:00 +1°C° 0 mm 5 m/s 755 mmHg 91%
05:00 +1°C° 0.6 mm 5 m/s 755 mmHg 92%
06:00 +1°C° 0.6 mm 5 m/s 756 mmHg 93%
07:00 0°C° 0.6 mm 5 m/s 756 mmHg 94%
08:00 +1°C° 0.2 mm 5 m/s 756 mmHg 92%
09:00 +1°C° 0.2 mm 5 m/s 756 mmHg 91%
10:00 +2°C° 0.2 mm 5 m/s 757 mmHg 89%
11:00 +2°C° 0.8 mm 5 m/s 757 mmHg 90%
12:00 +2°C° 0.8 mm 5 m/s 757 mmHg 91%
13:00 +2°C° 0.8 mm 5 m/s 758 mmHg 92%
14:00 +3°C° 0.2 mm 5 m/s 758 mmHg 91%
15:00 +3°C° 0.2 mm 5 m/s 758 mmHg 89%
16:00 +5°C° 0.2 mm 5 m/s 758 mmHg 88%
17:00 +5°C° 0 mm 5 m/s 759 mmHg 88%
18:00 +5°C° 0 mm 5 m/s 759 mmHg 88%
19:00 +5°C° 0 mm 5 m/s 759 mmHg 87%
20:00 +5°C° 0 mm 5 m/s 760 mmHg 86%
21:00 +5°C° 0 mm 4 m/s 760 mmHg 85%
22:00 +5°C° 0 mm 4 m/s 760 mmHg 84%
23:00 +5°C° 0 mm 4 m/s 760 mmHg 84%
Arată mai mult

Formular de consimțământ

Meteoprog și furnizorii noștri de servicii pot stoca și accesa date personale, precum cookies, identificatori de dispozitiv sau alte tehnologii similare pe dispozitivul dumneavoastră și procesa astfel de date pentru a personaliza conținutul și reclamele, dar și pentru a oferi caracteristici de social media și pentru a analiza traficul.

  • Stocarea și/sau accesarea informațiilor pe dispozitivul dumneavoastră

    Cookies, identificatori de dispozitiv sau alte informații pot fi stocate sau accesate pe dispozitiv în scopurile indicate mai sus.

  • Reclame și conținut personalizat, evaluarea reclamelor și a conținutului, informații despre audiențe și dezvoltarea produselor

    Reclamele și conținutul pot fi personalizate pe baza unui profil. Pot fi adăugate date suplimentare pentru a personaliza mai bine reclamele și conținutul. Performanța reclamelor și conținutului poate fi măsurată. Pot fi obținute informații despre utilizatorii care au văzut reclamele și conținutul. Aceste date pot fi utilizate pentru a dezvolta sau îmbunătăți experiența utilizatorilor, sistemele și software-ul.

Dând clic pe ‘Sunt de acord’, permiteți utilizarea cookie-urilor menționate, a identificatorilor de dispozitiv, balizelor web sau altor tehnologii similare. Setările pot fi modificate din browser-ul dispozitivului dumneavoastră.

În anumite scopuri, interesele legitime pot prima asupra consimțământului. Puteți citi mai multe informații în acest sens în Politica privind Confidențialitatea Datelor și Cookie.